| time (UTC) | temp C | wind direction | speed KPH | gust KPH | rain 1hr cm | rain 24hr cm | rain mn cm | humidity % | barometer mb |
| 20260505070022 | 6 | 223 | 17.7 | 24.1 | 0.00 | 0.00 | 0.00 | 86 | 1009.9 |
| 20260505064512 | 6 | 232 | 20.9 | 27.4 | 0.00 | 0.00 | 0.00 | 87 | 1009.6 |
| 20260505063012 | 6 | 215 | 20.9 | 27.4 | 0.00 | 0.00 | 0.00 | 87 | 1009.4 |
| 20260505061507 | 6 | 213 | 22.5 | 30.6 | 0.00 | 0.00 | 0.00 | 86 | 1009.0 |
| 20260505060006 | 6 | 217 | 22.5 | 32.2 | 0.00 | 0.00 | 0.00 | 86 | 1008.7 |
| 20260505054505 | 6 | 215 | 19.3 | 27.4 | 0.00 | 0.00 | 0.00 | 86 | 1008.5 |
| 20260505053003 | 6 | 204 | 20.9 | 29.0 | 0.00 | 0.00 | 0.00 | 86 | 1008.4 |
| 20260505051601 | 6 | 209 | 17.7 | 27.4 | 0.00 | 0.00 | 0.00 | 85 | 1008.2 |
| 20260505041556 | 5 | 240 | 20.9 | 27.4 | 0.00 | 0.00 | 0.00 | 85 | 1007.0 |
| 20260505040053 | 6 | 239 | 20.9 | 30.6 | 0.00 | 0.00 | 0.00 | 84 | 1006.8 |
| 20260505034545 | 6 | 226 | 25.7 | 38.6 | 0.00 | 0.00 | 0.00 | 82 | 1006.9 |
| 20260505033043 | 6 | 216 | 25.7 | 32.2 | 0.00 | 0.00 | 0.00 | 83 | 1006.7 |
| 20260505031548 | 6 | 220 | 24.1 | 30.6 | 0.00 | 0.00 | 0.00 | 82 | 1006.5 |
| 20260505030036 | 6 | 219 | 19.3 | 25.7 | 0.00 | 0.00 | 0.00 | 83 | 1006.4 |
| 20260505024538 | 6 | 217 | 16.1 | 24.1 | 0.00 | 0.00 | 0.00 | 80 | 1006.3 |
| 20260505023037 | 7 | 230 | 17.7 | 29.0 | 0.00 | 0.00 | 0.00 | 78 | 1006.1 |
| 20260505021535 | 7 | 226 | 20.9 | 30.6 | 0.00 | 0.00 | 0.00 | 80 | 1005.8 |
| 20260505020030 | 7 | 209 | 19.3 | 24.1 | 0.00 | 0.00 | 0.00 | 78 | 1005.7 |
| 20260505014539 | 7 | 209 | 17.7 | 27.4 | 0.00 | 0.00 | 0.00 | 76 | 1005.7 |
| 20260505013028 | 6 | 234 | 17.7 | 22.5 | 0.00 | 0.00 | 0.00 | 78 | 1005.7 |
| 20260505011528 | 7 | 236 | 19.3 | 30.6 | 0.00 | 0.00 | 0.00 | 75 | 1005.5 |
| 20260505010027 | 8 | 224 | 29.0 | 37.0 | 0.00 | 0.00 | 0.00 | 70 | 1005.5 |
| 20260505004528 | 9 | 216 | 25.7 | 33.8 | 0.00 | 0.00 | 0.00 | 71 | 1005.2 |
| 20260505003026 | 8 | 206 | 32.2 | 41.8 | 0.00 | 0.00 | 0.00 | 72 | 1005.4 |
| 20260505001522 | 9 | 207 | 33.8 | 45.1 | 0.00 | 0.00 | 0.00 | 67 | 1005.0 |
| 20260505000020 | 9 | 199 | 30.6 | 43.5 | 0.00 | 0.00 | 0.00 | 64 | 1004.6 |
| 20260504234519 | 7 | 219 | 27.4 | 38.6 | 0.00 | 0.00 | 0.00 | 69 | 1004.3 |
| 20260504233016 | 8 | 230 | 29.0 | 41.8 | 0.00 | 0.00 | 0.00 | 63 | 1003.8 |
| 20260504231515 | 7 | 261 | 25.7 | 37.0 | 0.00 | 0.00 | 0.00 | 69 | 1003.7 |
| 20260504230014 | 7 | 253 | 17.7 | 32.2 | 0.00 | 0.00 | 0.00 | 68 | 1003.6 |
| 20260504224514 | 8 | 202 | 20.9 | 32.2 | 0.00 | 0.00 | 0.00 | 66 | 1003.5 |
| 20260504223024 | 8 | 228 | 25.7 | 37.0 | 0.00 | 0.00 | 0.00 | 65 | 1003.6 |
| 20260504221509 | 8 | 219 | 29.0 | 40.2 | 0.00 | 0.00 | 0.00 | 66 | 1003.6 |
| 20260504220013 | 8 | 203 | 25.7 | 38.6 | 0.00 | 0.00 | 0.00 | 67 | 1003.2 |
| 20260504214507 | 8 | 223 | 27.4 | 38.6 | 0.00 | 0.00 | 0.00 | 66 | 1003.0 |
| 20260504213014 | 8 | 230 | 29.0 | 45.1 | 0.00 | 0.00 | 0.00 | 66 | 1002.9 |
| 20260504211506 | 9 | 224 | 30.6 | 43.5 | 0.00 | 0.00 | 0.00 | 67 | 1002.7 |
| 20260504210001 | 9 | 226 | 29.0 | 45.1 | 0.00 | 0.00 | 0.00 | 68 | 1002.6 |
| 20260504204559 | 9 | 228 | 32.2 | 43.5 | 0.00 | 0.00 | 0.00 | 67 | 1002.4 |
| 20260504203111 | 8 | 263 | 33.8 | 49.9 | 0.00 | 0.00 | 0.00 | 68 | 1002.2 |
| 20260504201601 | 10 | 267 | 40.2 | 75.6 | 0.00 | 0.00 | 0.00 | 57 | 1001.9 |
| 20260504200115 | 7 | 230 | 33.8 | 49.9 | 0.00 | 0.00 | 0.00 | 69 | 1001.8 |
| 20260504194556 | 10 | 258 | 41.8 | 64.4 | 0.00 | 0.00 | 0.00 | 57 | 1001.6 |
| 20260504193054 | 9 | 249 | 46.7 | 66.0 | 0.00 | 0.00 | 0.00 | 60 | 1001.3 |
| 20260504191556 | 9 | 266 | 48.3 | 62.8 | 0.00 | 0.00 | 0.00 | 63 | 1001.1 |
| 20260504190047 | 9 | 257 | 51.5 | 64.4 | 0.00 | 0.00 | 0.00 | 65 | 1000.8 |
| 20260504184544 | 8 | 228 | 48.3 | 59.5 | 0.00 | 0.03 | 0.00 | 69 | 1000.4 |
| 20260504183043 | 8 | 246 | 46.7 | 70.8 | 0.00 | 0.03 | 0.00 | 71 | 1000.5 |
| 20260504181544 | 7 | 239 | 38.6 | 66.0 | 0.00 | 0.03 | 0.00 | 75 | 1000.2 |
| 20260504180037 | 7 | 239 | 43.5 | 66.0 | 0.00 | 0.03 | 0.00 | 77 | 1000.1 |
| 20260504174535 | 7 | 257 | 51.5 | 66.0 | 0.00 | 0.03 | 0.00 | 77 | 1000.0 |
| 20260504173031 | 6 | 238 | 38.6 | 57.9 | 0.00 | 0.03 | 0.00 | 81 | 999.8 |
| 20260504171529 | 6 | 233 | 37.0 | 64.4 | 0.00 | 0.03 | 0.00 | 83 | 999.5 |
| 20260504110111 | 3 | 244 | 48.3 | 69.2 | 0.00 | 0.03 | 0.00 | 88 | 987.5 |
| 20260504100110 | 3 | 232 | 49.9 | 67.6 | 0.00 | 0.03 | 0.00 | 91 | 984.3 |
| 20260504081542 | 3 | 224 | 46.7 | 70.8 | 0.00 | 0.03 | 0.00 | 93 | 980.0 |